Date String (YYYY-MM-DD hh:mm:ss) UTC,Instrument flags,absolute air pressure of the measurement (hPa),sample flow rate (lpm),inlet stack bypass flow (lpm),air temperature of the measurement (°C),ambient temperature measured by the external sensor (°C),aerosol sample conditioner tube jacket temperature (°C),OPC LED temperature (°C),internal box temperature (°C),relative humidity of the measurement (%),span deviation,mass concentration of particles derived from Lorenz-Mie calculation of OPC scattering (μg/m³),mass concentration of particles derived from Lorenz-Mie calculation of OPC scattering (μg/m³),mass concentration of particles derived from Lorenz-Mie calculation of OPC scattering (μg/m³)
DateTimeUTC,F1_M11,P_M11,Q1_M11,Q2_M11,T1_M11,T2_M11,T3_M11,T4_M11,T5_M11,U1_M11,ZSPAN_M11,X2_M11,X0_M11,X1_M11
2023-07-11 23:00:00,SystemResetWarning,0829.3,5.01,000.00,028.6,026.4,000.0,036.9,030.3,20.8,0000.0,0004.86,0015.53,0003.83
2023-07-11 23:01:00,SystemResetWarning,0829.4,4.99,000.00,028.7,026.8,000.0,036.9,030.4,20.5,0000.0,0004.88,0016.73,0003.82
2023-07-11 23:02:00,SystemResetWarning,0829.5,4.99,000.00,028.7,027.2,000.0,036.9,030.5,19.2,0000.0,0004.89,0017.43,0003.82
2023-07-11 23:03:00,SystemResetWarning,0829.5,5.00,000.00,028.8,027.0,000.0,036.9,030.5,18.8,0000.0,0004.85,0017.14,0003.81
2023-07-11 23:04:00,SystemResetWarning,0829.4,5.00,000.00,028.7,025.4,000.0,036.9,030.3,18.6,0000.0,0004.81,0017.30,0003.80
2023-07-11 23:05:00,SystemResetWarning,0829.4,5.01,000.00,028.7,024.9,000.0,036.8,030.1,19.4,0000.0,0004.86,0016.95,0003.80
2023-07-11 23:06:00,SystemResetWarning,0829.4,5.02,000.00,028.6,025.3,000.0,036.8,030.0,20.0,0000.0,0004.87,0017.86,0003.81
2023-07-11 23:07:00,SystemResetWarning,0829.4,5.00,000.00,028.6,025.7,000.0,036.8,030.0,20.0,0000.0,0004.89,0018.51,0003.81
2023-07-11 23:08:00,SystemResetWarning,0829.4,5.00,000.00,028.6,026.1,000.0,036.9,030.2,20.7,0000.0,0004.91,0020.01,0003.82
2023-07-11 23:09:00,SystemResetWarning,0829.4,5.00,000.00,028.6,026.6,000.0,036.9,030.3,20.4,0000.0,0004.95,0019.93,0003.83
2023-07-11 23:10:00,SystemResetWarning,0829.5,5.00,000.00,028.7,027.0,000.0,036.9,030.4,20.4,0000.0,0005.00,0021.18,0003.84
2023-07-11 23:11:00,SystemResetWarning,0829.5,5.00,000.00,028.8,027.4,000.0,037.0,030.5,20.4,0000.0,0004.98,0020.53,0003.84
2023-07-11 23:12:00,SystemResetWarning,0829.5,4.99,000.00,028.8,027.2,000.0,037.0,030.5,20.7,0000.0,0005.00,0019.89,0003.85
2023-07-11 23:13:00,SystemResetWarning,0829.4,4.99,000.00,028.8,025.6,000.0,036.9,030.3,21.1,0000.0,0005.09,0020.23,0003.86
2023-07-11 23:14:00,SystemResetWarning,0829.5,5.01,000.00,028.7,025.0,000.0,036.8,030.1,22.6,0000.0,0005.20,0021.87,0003.87
2023-07-11 23:15:00,SystemResetWarning,0829.4,5.01,000.00,028.7,025.3,000.0,036.8,030.1,21.7,0000.0,0005.25,0022.61,0003.89
2023-07-11 23:16:00,SystemResetWarning,0829.4,4.99,000.00,028.6,025.7,000.0,036.9,030.1,19.1,0000.0,0005.24,0023.03,0003.88
2023-07-11 23:17:00,SystemResetWarning,0829.4,4.99,000.00,028.6,026.2,000.0,036.9,030.2,19.1,0000.0,0005.25,0023.19,0003.86
2023-07-11 23:18:00,SystemResetWarning,0829.4,5.00,000.00,028.7,026.7,000.0,036.9,030.3,19.7,0000.0,0005.24,0022.32,0003.85
2023-07-11 23:19:00,SystemResetWarning,0829.4,5.01,000.00,028.7,027.1,000.0,037.0,030.5,19.2,0000.0,0005.26,0021.42,0003.85
2023-07-11 23:20:00,SystemResetWarning,0829.4,5.00,000.00,028.8,026.9,000.0,036.9,030.5,19.4,0000.0,0005.25,0020.79,0003.84
2023-07-11 23:21:00,SystemResetWarning,0829.4,4.98,000.00,028.7,025.4,000.0,036.9,030.2,19.7,0000.0,0005.23,0019.35,0003.84
2023-07-11 23:22:00,SystemResetWarning,0829.3,5.02,000.00,028.7,024.8,000.0,036.8,030.1,19.1,0000.0,0005.22,0018.76,0003.83
2023-07-11 23:23:00,SystemResetWarning,0829.3,5.01,000.00,028.6,025.2,000.0,036.8,030.1,19.4,0000.0,0005.16,0018.21,0003.82
2023-07-11 23:24:00,SystemResetWarning,0829.3,4.99,000.00,028.6,025.6,000.0,036.8,030.0,19.3,0000.0,0005.08,0017.64,0003.80
2023-07-11 23:25:00,SystemResetWarning,0829.3,5.00,000.00,028.6,026.1,000.0,036.9,030.2,19.1,0000.0,0004.99,0016.49,0003.79
2023-07-11 23:26:00,SystemResetWarning,0829.3,5.00,000.00,028.6,026.5,000.0,036.9,030.3,19.6,0000.0,0004.92,0015.97,0003.77
2023-07-11 23:27:00,SystemResetWarning,0829.4,4.99,000.00,028.7,026.9,000.0,036.9,030.4,19.4,0000.0,0004.98,0015.76,0003.77
2023-07-11 23:28:00,SystemResetWarning,0829.4,5.00,000.00,028.7,027.2,000.0,036.9,030.5,18.7,0000.0,0004.99,0014.75,0003.76
2023-07-11 23:29:00,SystemResetWarning,0829.4,4.98,000.00,028.8,026.3,000.0,036.9,030.4,19.8,0000.0,0004.98,0014.12,0003.76
2023-07-11 23:30:00,SystemResetWarning,0829.4,5.01,000.00,028.7,024.9,000.0,036.8,030.1,20.7,0000.0,0005.01,0013.85,0003.76
2023-07-11 23:31:00,SystemResetWarning,0829.4,5.01,000.00,028.6,025.0,000.0,036.8,030.0,21.3,0000.0,0005.01,0013.37,0003.76
2023-07-11 23:32:00,SystemResetWarning,0829.5,5.00,000.00,028.6,025.3,000.0,036.8,030.0,19.7,0000.0,0004.99,0013.06,0003.76
2023-07-11 23:33:00,SystemResetWarning,0829.6,5.00,000.00,028.6,025.8,000.0,036.8,030.1,19.2,0000.0,0004.99,0013.18,0003.76
2023-07-11 23:34:00,SystemResetWarning,0829.6,5.01,000.00,028.6,026.3,000.0,036.9,030.2,19.9,0000.0,0005.06,0013.26,0003.77
2023-07-11 23:35:00,SystemResetWarning,0829.6,4.99,000.00,028.6,026.7,000.0,036.9,030.3,20.4,0000.0,0005.09,0012.86,0003.78
2023-07-11 23:36:00,SystemResetWarning,0829.6,5.00,000.00,028.7,027.1,000.0,036.9,030.4,20.4,0000.0,0005.13,0012.11,0003.78
2023-07-11 23:37:00,SystemResetWarning,0829.6,5.00,000.00,028.8,027.4,000.0,037.0,030.5,20.0,0000.0,0005.15,0011.68,0003.79
2023-07-11 23:38:00,SystemResetWarning,0829.5,4.98,000.00,028.8,026.5,000.0,036.9,030.4,19.4,0000.0,0005.17,0011.08,0003.81
2023-07-11 23:39:00,SystemResetWarning,0829.4,5.01,000.00,028.7,025.1,000.0,036.8,030.2,20.3,0000.0,0005.18,0011.96,0003.82
2023-07-11 23:40:00,SystemResetWarning,0829.4,5.01,000.00,028.6,025.1,000.0,036.8,030.1,19.4,0000.0,0005.21,0013.25,0003.84
2023-07-11 23:41:00,SystemResetWarning,0829.3,5.00,000.00,028.6,025.5,000.0,036.8,030.1,19.1,0000.0,0005.18,0013.50,0003.85
2023-07-11 23:42:00,SystemResetWarning,0829.4,5.00,000.00,028.6,025.9,000.0,036.9,030.1,18.3,0000.0,0005.21,0013.65,0003.85
2023-07-11 23:43:00,SystemResetWarning,0829.4,4.99,000.00,028.6,026.4,000.0,036.9,030.3,19.2,0000.0,0005.26,0013.78,0003.86
2023-07-11 23:44:00,SystemResetWarning,0829.5,5.00,000.00,028.7,026.8,000.0,036.9,030.4,20.0,0000.0,0005.26,0013.41,0003.86
2023-07-11 23:45:00,SystemResetWarning,0829.6,5.00,000.00,028.7,027.2,000.0,036.9,030.5,19.4,0000.0,0005.21,0014.27,0003.86
2023-07-11 23:46:00,SystemResetWarning,0829.6,5.00,000.00,028.8,027.5,000.0,037.0,030.6,19.3,0000.0,0005.23,0014.79,0003.86
2023-07-11 23:47:00,SystemResetWarning,0829.6,4.99,000.00,028.8,026.7,000.0,036.9,030.5,19.6,0000.0,0005.22,0015.25,0003.86
2023-07-11 23:48:00,SystemResetWarning,0829.5,5.00,000.00,028.8,025.2,000.0,036.9,030.2,19.5,0000.0,0005.25,0016.66,0003.87
2023-07-11 23:49:00,SystemResetWarning,0829.5,5.01,000.00,028.7,025.1,000.0,036.8,030.2,19.9,0000.0,0005.25,0017.39,0003.87
2023-07-11 23:50:00,SystemResetWarning,0829.5,5.01,000.00,028.7,025.4,000.0,036.9,030.1,20.4,0000.0,0005.19,0017.33,0003.87
2023-07-11 23:51:00,SystemResetWarning,0829.5,5.00,000.00,028.6,025.9,000.0,036.9,030.2,21.8,0000.0,0005.15,0017.50,0003.87
2023-07-11 23:52:00,SystemResetWarning,0829.4,5.00,000.00,028.7,026.4,000.0,036.9,030.3,22.6,0000.0,0005.18,0018.09,0003.86
2023-07-11 23:53:00,SystemResetWarning,0829.4,5.00,000.00,028.7,026.8,000.0,037.0,030.4,19.8,0000.0,0005.22,0019.16,0003.86
2023-07-11 23:54:00,SystemResetWarning,0829.4,5.00,000.00,028.8,027.2,000.0,037.0,030.5,19.9,0000.0,0005.22,0019.54,0003.86
2023-07-11 23:55:00,SystemResetWarning,0829.4,5.00,000.00,028.8,027.3,000.0,037.0,030.6,20.3,0000.0,0005.23,0020.28,0003.85
2023-07-11 23:56:00,SystemResetWarning,0829.4,4.98,000.00,028.8,025.8,000.0,036.9,030.4,19.6,0000.0,0005.29,0020.82,0003.85
2023-07-11 23:57:00,SystemResetWarning,0829.3,5.00,000.00,028.7,024.9,000.0,036.8,030.2,19.7,0000.0,0005.27,0020.59,0003.86
2023-07-11 23:58:00,SystemResetWarning,0829.3,5.01,000.00,028.7,025.2,000.0,036.8,030.1,20.0,0000.0,0005.27,0020.13,0003.85
2023-07-11 23:59:00,SystemResetWarning,0829.3,5.00,000.00,028.6,025.6,000.0,036.9,030.1,20.2,0000.0,0005.23,0019.12,0003.84
